QPF
0.01 0.01 0.01 0.01 0.02 0.03 0.04 0.05 0.05 0.05 0.05 0.06 0.06 0.09 0.06 0.04 0.04 0.04 0.08 0.06 0.05 0.05 0.03 0.03 0.03 0.04 0.05 0.11 0.11 0.08 0.08 0.08 0.08 0.08 0.09 0.09 0.09 0.09
0.01 0.02 0.02 0.01 0.01 0.02 0.03 0.03 0.03 0.04 0.05 0.05 0.06 0.09 0.08 0.06 0.05 0.04 0.05 0.08 0.07 0.06 0.06 0.05 0.05 0.03 0.03 0.10 0.12 0.09 0.07 0.05 0.05 0.07 0.09 0.10 0.08 0.07
0.01 0.01 0.02 0.01 0.01 0.01 0.02 0.03 0.03 0.03 0.04 0.04 0.05 0.08 0.08 0.07 0.06 0.06 0.05 0.07 0.08 0.07 0.07 0.09 0.06 0.04 0.03 0.07 0.14 0.10 0.10 0.07 0.04 0.03 0.04 0.07 0.07 0.05
0.02 0.02 0.02 0.01 0.01 0.01 0.01 0.01 0.02 0.03 0.03 0.03 0.04 0.05 0.07 0.07 0.05 0.06 0.08 0.06 0.06 0.08 0.08 0.07 0.07 0.06 0.04 0.05 0.12 0.12 0.11 0.08 0.07 0.05 0.03 0.03 0.04 0.05
0.01 0.01 0.01 0.02 0.02 0.01 0.01 0.01 0.01 0.01 0.02 0.03 0.04 0.05 0.05 0.05 0.04 0.04 0.05 0.07 0.05 0.05 0.06 0.06 0.06 0.06 0.06 0.06 0.07 0.08 0.09 0.09 0.08 0.07 0.04 0.03 0.04 0.06
0.00 0.00 0.01 0.01 0.01 0.01 0.01 0.01 0.02 0.03 0.04 0.03 0.03 0.04 0.04 0.04 0.03 0.04 0.04 0.05 0.06 0.04 0.04 0.05 0.06 0.05 0.05 0.05 0.05 0.06 0.07 0.07 0.07 0.07 0.06 0.03 0.03 0.05
0.01 0.00 0.00 0.00 0.01 0.01 0.00 0.01 0.01 0.03 0.05 0.04 0.02 0.03 0.03 0.02 0.02 0.03 0.04 0.04 0.05 0.05 0.05 0.04 0.05 0.06 0.05 0.04 0.04 0.05 0.05 0.05 0.05 0.05 0.05 0.05 0.04 0.04
0.01 0.01 0.00 0.00 0.00 0.00 0.00 0.01 0.01 0.03 0.03 0.03 0.02 0.02 0.01 0.01 0.02 0.02 0.04 0.05 0.04 0.04 0.05 0.04 0.03 0.04 0.06 0.05 0.03 0.03 0.04 0.06 0.06 0.05 0.05 0.05 0.05 0.03
0.01 0.01 0.01 0.01 0.01 0.01 0.01 0.01 0.01 0.02 0.03 0.04 0.03 0.02 0.01 0.01 0.02 0.02 0.03 0.05 0.05 0.04 0.05 0.06 0.04 0.04 0.05 0.06 0.07 0.03 0.02 0.03 0.05 0.05 0.05 0.05 0.05 0.04
0.01 0.01 0.01 0.01 0.01 0.02 0.02 0.02 0.02 0.01 0.01 0.02 0.03 0.03 0.02 0.02 0.02 0.03 0.03 0.05 0.04 0.04 0.05 0.07 0.07 0.06 0.05 0.05 0.07 0.06 0.03 0.03 0.03 0.04 0.05 0.05 0.04 0.04
0.00 0.00 0.00 0.01 0.01 0.00 0.02 0.03 0.03 0.02 0.01 0.01 0.01 0.01 0.02 0.02 0.02 0.03 0.03 0.04 0.04 0.04 0.05 0.06 0.06 0.07 0.07 0.06 0.06 0.07 0.05 0.04 0.04 0.04 0.04 0.04 0.03 0.03
0.00 0.00 0.00 0.00 0.00 0.00 0.01 0.02 0.02 0.02 0.02 0.02 0.02 0.02 0.01 0.01 0.01 0.02 0.03 0.03 0.04 0.05 0.04 0.05 0.07 0.06 0.08 0.08 0.07 0.06 0.06 0.06 0.06 0.06 0.06 0.06 0.05 0.04
0.00 0.00 0.00 0.00 0.00 0.01 0.01 0.01 0.02 0.02 0.02 0.03 0.05 0.03 0.02 0.01 0.01 0.02 0.03 0.03 0.05 0.06 0.04 0.03 0.05 0.06 0.07 0.07 0.07 0.08 0.07 0.07 0.08 0.09 0.09 0.09 0.08 0.07
0.00 0.01 0.00 0.00 0.00 0.01 0.01 0.01 0.01 0.02 0.03 0.03 0.03 0.02 0.02 0.02 0.02 0.03 0.04 0.04 0.04 0.04 0.03 0.03 0.05 0.06 0.07 0.08 0.08 0.07 0.08 0.10 0.10 0.09 0.09 0.10 0.11 0.10
0.00 0.01 0.01 0.01 0.01 0.01 0.01 0.01 0.01 0.02 0.02 0.02 0.02 0.02 0.01 0.02 0.03 0.03 0.04 0.04 0.03 0.02 0.02 0.02 0.03 0.04 0.05 0.07 0.06 0.05 0.06 0.06 0.06 0.07 0.07 0.07 0.07 0.08
0.00 0.01 0.01 0.01 0.01 0.01 0.01 0.01 0.01 0.01 0.01 0.02 0.02 0.01 0.01 0.02 0.03 0.03 0.02 0.03 0.03 0.01 0.01 0.02 0.02 0.03 0.04 0.04 0.04 0.04 0.04 0.04 0.03 0.03 0.04 0.05 0.05 0.06
0.01 0.00 0.00 0.00 0.00 0.00 0.01 0.01 0.00 0.00 0.00 0.00 0.01 0.01 0.01 0.02 0.02 0.02 0.02 0.02 0.03 0.02 0.02 0.02 0.02 0.03 0.04 0.03 0.02 0.02 0.02 0.02 0.02 0.02 0.02 0.03 0.03 0.03
0.01 0.00 0.00 0.00 0.00 0.00 0.01 0.00 0.00 0.00 0.00 0.00 0.00 0.01 0.01 0.02 0.01 0.01 0.01 0.02 0.02 0.02 0.01 0.01 0.01 0.02 0.02 0.03 0.03 0.02 0.01 0.01 0.01 0.02 0.02 0.02 0.02 0.02
0.01 0.01 0.00 0.00 0.00 0.00 0.00 0.00 0.00 0.00 0.00 0.00 0.00 0.00 0.01 0.01 0.01 0.01 0.01 0.01 0.02 0.01 0.01 0.01 0.01 0.01 0.02 0.02 0.02 0.02 0.01 0.01 0.01 0.01 0.01 0.01 0.01 0.01
0.01 0.02 0.02 0.01 0.01 0.01 0.01 0.01 0.01 0.01 0.01 0.01 0.00 0.00 0.00 0.01 0.01 0.01 0.01 0.01 0.01 0.01 0.01 0.01 0.01 0.01 0.01 0.02 0.02 0.02 0.02 0.02 0.01 0.01 0.01 0.01 0.01 0.01
0.03 0.03 0.03 0.03 0.02 0.02 0.01 0.01 0.01 0.01 0.01 0.01 0.01 0.01 0.01 0.01 0.01 0.01 0.01 0.01 0.01 0.01 0.01 0.01 0.01 0.01 0.01 0.01 0.01 0.01 0.01 0.02 0.02 0.02 0.02 0.02 0.01 0.01
0.02 0.02 0.03 0.03 0.03 0.02 0.01 0.01 0.01 0.01 0.01 0.02 0.02 0.01 0.01 0.01 0.01 0.01 0.01 0.00 0.00 0.00 0.01 0.01 0.00 0.00 0.01 0.01 0.01 0.01 0.00 0.00 0.00 0.00 0.00 0.00 0.00 0.00
0.03 0.03 0.03 0.03 0.04 0.04 0.02 0.01 0.01 0.02 0.02 0.02 0.02 0.02 0.02 0.01 0.01 0.01 0.00 0.00 0.00 0.00 0.00 0.00 0.00 0.00 0.00 0.01 0.01 0.01 0.01 0.00 0.00 0.00 0.00 0.00 0.00 0.00
MSLP
1011.61 1011.39 1011.27 1011.25 1011.32 1011.46 1011.62 1011.76 1011.85 1011.86 1011.80 1011.69 1011.54 1011.39 1011.28 1011.24 1011.29 1011.41 1011.61 1011.86 1012.13 1012.39 1012.64 1012.86 1013.04 1013.20 1013.35 1013.51 1013.68 1013.87 1014.09 1014.33 1014.58 1014.83 1015.08 1015.32 1015.54 1015.76
1011.60 1011.35 1011.18 1011.11 1011.13 1011.22 1011.36 1011.50 1011.61 1011.67 1011.67 1011.63 1011.54 1011.46 1011.41 1011.40 1011.46 1011.59 1011.78 1012.01 1012.25 1012.49 1012.71 1012.90 1013.06 1013.20 1013.33 1013.46 1013.60 1013.77 1013.96 1014.17 1014.39 1014.62 1014.84 1015.05 1015.24 1015.42
1011.57 1011.32 1011.12 1011.01 1010.99 1011.05 1011.15 1011.27 1011.38 1011.46 1011.50 1011.50 1011.48 1011.45 1011.45 1011.49 1011.58 1011.72 1011.92 1012.15 1012.39 1012.62 1012.83 1013.00 1013.15 1013.27 1013.38 1013.50 1013.62 1013.77 1013.94 1014.13 1014.32 1014.52 1014.70 1014.87 1015.02 1015.16
1011.52 1011.28 1011.09 1010.97 1010.92 1010.94 1011.01 1011.10 1011.20 1011.28 1011.33 1011.36 1011.37 1011.39 1011.42 1011.50 1011.62 1011.79 1012.01 1012.25 1012.49 1012.73 1012.93 1013.11 1013.26 1013.38 1013.49 1013.60 1013.72 1013.86 1014.02 1014.19 1014.36 1014.53 1014.68 1014.81 1014.93 1015.02
1011.41 1011.21 1011.05 1010.94 1010.89 1010.89 1010.93 1011.00 1011.07 1011.13 1011.18 1011.21 1011.24 1011.28 1011.34 1011.45 1011.60 1011.79 1012.02 1012.28 1012.54 1012.78 1013.00 1013.19 1013.35 1013.49 1013.61 1013.73 1013.87 1014.01 1014.17 1014.33 1014.50 1014.65 1014.78 1014.88 1014.96 1015.03
1011.20 1011.07 1010.95 1010.88 1010.84 1010.85 1010.88 1010.93 1010.98 1011.02 1011.05 1011.08 1011.11 1011.15 1011.22 1011.34 1011.51 1011.72 1011.97 1012.24 1012.51 1012.77 1013.01 1013.22 1013.40 1013.56 1013.71 1013.86 1014.01 1014.18 1014.35 1014.53 1014.70 1014.85 1014.97 1015.07 1015.13 1015.17
1010.85 1010.79 1010.74 1010.72 1010.73 1010.76 1010.80 1010.85 1010.89 1010.92 1010.93 1010.95 1010.96 1011.00 1011.08 1011.20 1011.37 1011.59 1011.85 1012.12 1012.41 1012.68 1012.94 1013.17 1013.38 1013.57 1013.76 1013.94 1014.13 1014.34 1014.54 1014.75 1014.94 1015.10 1015.23 1015.33 1015.38 1015.42
1010.33 1010.34 1010.37 1010.42 1010.48 1010.56 1010.64 1010.70 1010.75 1010.78 1010.79 1010.80 1010.81 1010.84 1010.91 1011.03 1011.20 1011.42 1011.67 1011.96 1012.25 1012.53 1012.81 1013.06 1013.30 1013.53 1013.75 1013.98 1014.21 1014.46 1014.70 1014.94 1015.16 1015.36 1015.51 1015.61 1015.68 1015.71
1009.65 1009.71 1009.81 1009.93 1010.07 1010.20 1010.33 1010.44 1010.52 1010.56 1010.59 1010.60 1010.62 1010.66 1010.73 1010.84 1011.01 1011.22 1011.47 1011.75 1012.04 1012.34 1012.62 1012.90 1013.17 1013.43 1013.69 1013.95 1014.23 1014.52 1014.81 1015.09 1015.34 1015.57 1015.74 1015.87 1015.94 1015.98
1008.83 1008.94 1009.09 1009.27 1009.47 1009.67 1009.86 1010.02 1010.15 1010.24 1010.30 1010.34 1010.38 1010.43 1010.51 1010.63 1010.80 1011.01 1011.25 1011.53 1011.82 1012.12 1012.42 1012.71 1013.00 1013.28 1013.57 1013.88 1014.19 1014.52 1014.84 1015.15 1015.44 1015.69 1015.89 1016.03 1016.12 1016.17
1007.95 1008.07 1008.25 1008.47 1008.72 1008.98 1009.22 1009.45 1009.63 1009.78 1009.89 1009.98 1010.07 1010.15 1010.26 1010.40 1010.58 1010.79 1011.04 1011.32 1011.61 1011.91 1012.21 1012.51 1012.81 1013.12 1013.43 1013.76 1014.09 1014.44 1014.79 1015.12 1015.42 1015.69 1015.91 1016.07 1016.17 1016.23
1007.10 1007.20 1007.37 1007.60 1007.87 1008.16 1008.45 1008.73 1008.98 1009.19 1009.37 1009.53 1009.67 1009.82 1009.97 1010.15 1010.35 1010.58 1010.84 1011.11 1011.41 1011.70 1012.01 1012.31 1012.62 1012.94 1013.26 1013.60 1013.95 1014.30 1014.65 1014.99 1015.30 1015.57 1015.79 1015.96 1016.07 1016.14
1006.34 1006.38 1006.51 1006.71 1006.97 1007.26 1007.58 1007.89 1008.19 1008.47 1008.73 1008.96 1009.18 1009.40 1009.62 1009.85 1010.09 1010.35 1010.63 1010.92 1011.21 1011.52 1011.82 1012.12 1012.43 1012.75 1013.08 1013.41 1013.75 1014.10 1014.45 1014.77 1015.08 1015.34 1015.56 1015.73 1015.85 1015.93
1005.68 1005.64 1005.69 1005.82 1006.03 1006.30 1006.61 1006.94 1007.28 1007.62 1007.95 1008.27 1008.58 1008.88 1009.18 1009.48 1009.78 1010.09 1010.40 1010.71 1011.02 1011.33 1011.64 1011.94 1012.25 1012.56 1012.88 1013.21 1013.54 1013.87 1014.20 1014.51 1014.79 1015.04 1015.26 1015.43 1015.55 1015.64
1005.11 1004.96 1004.90 1004.94 1005.07 1005.29 1005.56 1005.89 1006.25 1006.64 1007.04 1007.45 1007.85 1008.25 1008.64 1009.03 1009.40 1009.77 1010.13 1010.47 1010.81 1011.13 1011.45 1011.76 1012.07 1012.38 1012.69 1013.00 1013.32 1013.63 1013.93 1014.22 1014.48 1014.72 1014.92 1015.09 1015.22 1015.33
1004.55 1004.28 1004.10 1004.03 1004.06 1004.19 1004.41 1004.72 1005.09 1005.51 1005.98 1006.47 1006.97 1007.48 1007.97 1008.46 1008.92 1009.37 1009.79 1010.18 1010.55 1010.90 1011.24 1011.56 1011.88 1012.19 1012.50 1012.80 1013.10 1013.40 1013.68 1013.95 1014.20 1014.42 1014.61 1014.78 1014.92 1015.04
1003.92 1003.53 1003.23 1003.03 1002.95 1002.99 1003.15 1003.42 1003.78 1004.23 1004.76 1005.33 1005.93 1006.54 1007.15 1007.75 1008.31 1008.85 1009.35 1009.81 1010.23 1010.62 1010.99 1011.34 1011.67 1011.99 1012.30 1012.61 1012.91 1013.19 1013.46 1013.72 1013.95 1014.17 1014.36 1014.53 1014.68 1014.81
1003.14 1002.65 1002.23 1001.92 1001.73 1001.68 1001.76 1001.98 1002.34 1002.81 1003.38 1004.02 1004.72 1005.44 1006.17 1006.88 1007.56 1008.20 1008.79 1009.33 1009.83 1010.28 1010.69 1011.08 1011.44 1011.78 1012.11 1012.43 1012.73 1013.02 1013.29 1013.54 1013.77 1013.97 1014.16 1014.33 1014.48 1014.63
1002.20 1001.62 1001.11 1000.70 1000.41 1000.26 1000.28 1000.46 1000.79 1001.27 1001.88 1002.59 1003.38 1004.21 1005.05 1005.88 1006.68 1007.43 1008.12 1008.76 1009.33 1009.85 1010.32 1010.76 1011.16 1011.54 1011.90 1012.23 1012.55 1012.85 1013.13 1013.38 1013.61 1013.82 1014.00 1014.17 1014.32 1014.46
1001.14 1000.49 999.90 999.41 999.03 998.81 998.76 998.89 999.20 999.69 1000.32 1001.09 1001.95 1002.87 1003.81 1004.76 1005.67 1006.53 1007.34 1008.07 1008.74 1009.34 1009.88 1010.37 1010.83 1011.25 1011.64 1012.01 1012.35 1012.67 1012.96 1013.22 1013.45 1013.66 1013.83 1013.99 1014.13 1014.26
1000.02 999.34 998.69 998.13 997.69 997.40 997.29 997.37 997.65 998.13 998.78 999.57 1000.49 1001.48 1002.52 1003.56 1004.58 1005.56 1006.46 1007.30 1008.05 1008.74 1009.35 1009.91 1010.43 1010.90 1011.33 1011.73 1012.10 1012.44 1012.74 1013.01 1013.25 1013.45 1013.62 1013.76 1013.88 1013.98
998.96 998.25 997.57 996.96 996.46 996.12 995.95 995.98 996.22 996.67 997.32 998.13 999.08 1000.13 1001.23 1002.35 1003.46 1004.53 1005.53 1006.46 1007.30 1008.07 1008.76 1009.38 1009.94 1010.46 1010.93 1011.37 1011.76 1012.12 1012.45 1012.73 1012.97 1013.16 1013.32 1013.44 1013.53 1013.60
998.03 997.30 996.60 995.95 995.41 995.01 994.79 994.78 994.97 995.39 996.01 996.82 997.78 998.85 1000.00 1001.19 1002.36 1003.50 1004.59 1005.59 1006.51 1007.35 1008.10 1008.78 1009.39 1009.95 1010.46 1010.92 1011.34 1011.72 1012.06 1012.35 1012.59 1012.79 1012.93 1013.04 1013.09 1013.12
Thickness
5677 5676 5675 5677 5677 5679 5680 5681 5680 5681 5684 5689 5693 5697 5699 5702 5704 5708 5711 5712 5714 5716 5718 5719 5720 5722 5723 5724 5725 5726 5727 5727 5727 5727 5727 5727 5727 5726
5675 5675 5675 5676 5677 5677 5678 5680 5681 5681 5682 5687 5690 5693 5695 5699 5700 5704 5707 5709 5711 5712 5714 5715 5716 5718 5719 5720 5721 5722 5723 5723 5723 5723 5723 5723 5722 5722
5677 5676 5675 5675 5676 5676 5677 5678 5679 5680 5679 5683 5687 5690 5692 5695 5697 5700 5703 5706 5708 5708 5709 5711 5712 5713 5714 5715 5717 5717 5718 5718 5719 5719 5719 5719 5718 5718
5677 5676 5675 5675 5674 5676 5676 5676 5677 5678 5679 5679 5683 5686 5688 5691 5693 5695 5698 5702 5703 5703 5704 5706 5707 5708 5709 5710 5711 5712 5712 5713 5714 5714 5714 5714 5714 5713
5678 5677 5676 5676 5675 5675 5675 5675 5676 5677 5678 5679 5680 5682 5684 5687 5689 5691 5695 5696 5698 5699 5700 5701 5702 5703 5704 5705 5705 5706 5707 5708 5708 5708 5708 5708 5708 5708
5679 5678 5677 5676 5675 5675 5675 5675 5675 5675 5676 5677 5677 5678 5680 5682 5684 5686 5688 5691 5693 5696 5696 5697 5698 5698 5699 5700 5700 5701 5701 5702 5702 5703 5703 5703 5703 5702
5680 5679 5678 5675 5674 5673 5674 5674 5674 5673 5674 5674 5674 5675 5676 5677 5680 5683 5684 5686 5688 5691 5692 5694 5695 5696 5696 5695 5695 5696 5696 5696 5697 5697 5697 5696 5696 5696
5680 5679 5678 5675 5672 5670 5669 5669 5670 5672 5673 5673 5673 5673 5675 5677 5677 5678 5679 5680 5681 5685 5686 5688 5690 5691 5692 5692 5691 5690 5691 5691 5691 5691 5690 5690 5690 5690
5680 5679 5677 5676 5673 5673 5670 5667 5667 5667 5668 5671 5672 5673 5674 5675 5674 5675 5675 5676 5677 5680 5679 5680 5684 5684 5685 5685 5684 5684 5684 5684 5684 5684 5684 5683 5683 5684
5678 5677 5676 5675 5673 5672 5671 5670 5670 5669 5667 5668 5670 5672 5672 5672 5672 5672 5672 5671 5673 5674 5674 5673 5676 5677 5678 5678 5676 5676 5677 5677 5677 5677 5677 5677 5677 5677
5677 5675 5674 5674 5670 5666 5667 5668 5667 5667 5664 5663 5663 5665 5664 5664 5665 5666 5665 5665 5665 5667 5668 5668 5669 5669 5670 5671 5669 5668 5669 5669 5669 5669 5669 5669 5669 5669
5674 5673 5668 5668 5665 5663 5664 5665 5664 5664 5664 5662 5660 5659 5660 5660 5659 5661 5662 5661 5661 5660 5661 5661 5661 5661 5661 5663 5662 5662 5661 5661 5661 5661 5661 5661 5661 5662
5669 5669 5668 5662 5660 5658 5658 5661 5660 5660 5660 5659 5658 5658 5657 5657 5656 5657 5657 5656 5655 5655 5656 5655 5654 5654 5653 5653 5654 5654 5655 5654 5653 5653 5653 5652 5652 5652
5663 5664 5663 5657 5654 5653 5653 5653 5652 5651 5653 5653 5652 5651 5651 5650 5650 5650 5649 5649 5649 5649 5648 5648 5647 5646 5646 5645 5645 5646 5645 5645 5645 5645 5644 5643 5643 5642
5657 5655 5653 5650 5648 5647 5646 5645 5645 5646 5647 5647 5646 5646 5646 5644 5643 5642 5642 5640 5640 5639 5639 5639 5639 5639 5639 5638 5638 5637 5636 5635 5635 5635 5635 5635 5635 5634
5645 5645 5642 5641 5640 5641 5641 5641 5642 5643 5643 5642 5642 5641 5639 5637 5635 5635 5634 5633 5632 5630 5629 5629 5629 5630 5630 5630 5630 5630 5629 5627 5626 5625 5625 5625 5625 5625
5639 5638 5637 5637 5636 5637 5638 5639 5638 5638 5636 5637 5636 5634 5632 5631 5629 5628 5627 5627 5626 5625 5622 5619 5618 5618 5618 5619 5619 5620 5619 5618 5617 5616 5615 5615 5615 5615
5626 5630 5632 5633 5633 5633 5633 5633 5633 5633 5632 5631 5630 5629 5627 5626 5624 5622 5620 5620 5619 5618 5615 5612 5611 5610 5609 5607 5604 5608 5608 5608 5607 5606 5605 5605 5606 5605
5617 5624 5626 5627 5628 5628 5628 5627 5627 5626 5625 5624 5623 5623 5621 5620 5618 5616 5614 5613 5611 5609 5607 5605 5604 5605 5606 5606 5598 5593 5596 5597 5596 5596 5596 5596 5596 5594
5612 5616 5619 5621 5621 5622 5621 5621 5620 5618 5617 5617 5616 5616 5614 5613 5611 5610 5608 5606 5604 5601 5599 5597 5597 5597 5597 5597 5594 5586 5582 5585 5585 5585 5585 5585 5584 5580
5606 5608 5610 5612 5614 5614 5614 5614 5613 5612 5610 5609 5608 5607 5607 5605 5603 5602 5600 5594 5594 5593 5592 5590 5586 5582 5584 5583 5583 5581 5575 5571 5571 5573 5573 5573 5575 5575
5599 5600 5602 5603 5605 5606 5605 5605 5604 5604 5603 5602 5601 5599 5599 5597 5596 5593 5591 5589 5587 5586 5583 5580 5575 5574 5575 5576 5577 5574 5569 5564 5561 5558 5557 5557 5560 5564
5589 5591 5592 5594 5595 5596 5596 5597 5597 5596 5595 5594 5594 5591 5590 5589 5587 5585 5583 5581 5579 5576 5573 5570 5567 5566 5566 5565 5564 5563 5560 5557 5555 5554 5551 5547 5545 5544